Mountain Home AFB, ID

1:50 AM MST on January 17, 2017 (GMT -0700)
Mountain Home Air Force Base

Weather History for KMUO - January, 2013

Change the Weather History Date:

Friday, January 18, 2013

  Actual Average Record
Temperature  
Mean Temperature 5 °F 31 °F  
Max Temperature 13 °F 38 °F 59 °F (1919)
Min Temperature -3 °F 22 °F -13 °F (1917)
Degree Days  
Heating Degree Days 60 34  
Month to date heating degree days 845 634  
Cooling Degree Days 0 0  
Month to date cooling degree days 0 0  
Moisture  
Dew Point 2 °F    
Average Humidity 100    
Maximum Humidity 100    
Minimum Humidity 100    
Precipitation  
Precipitation T in 0.04 in 1.09 in (1953)
Month to date precipitation 0.11 0.70  
Sea Level Pressure  
Sea Level Pressure 30.64 in    
Wind  
Wind Speed 0 mph (NW)    
Max Wind Speed 6 mph    
Max Gust Speed -    
Visibility 3 miles    
Events Fog    
T = Trace of Precipitation, MM = Missing Value Source: NWS Daily Summary

Daily Weather History Graph

Daily Weather History Graph

Search for Another Location

Airport or City:

Trip Planner

Search our weather history database for the weather conditions in past years. The results will help you decide how hot, cold, wet, or windy it might be!

Date:

Astronomy

Jan. 18, 2013 Rise Set
Actual Time 8:10 AM MST 5:38 PM MST
Civil Twilight 7:39 AM MST 6:09 PM MST
Nautical Twilight 7:04 AM MST 6:44 PM MST
Astronomical Twilight 6:30 AM MST 7:18 PM MST
Moon 11:38 AM MST (1/18) 12:45 AM MST (1/18)
Length of Visible Light 10h 30m
Length of Day
9h 28m
Waxing Crescent, 48% of the Moon is Illuminated
Jan 18
Waxing Crescent
Jan 18
First Quarter
Jan 26
Full
Feb 3
Last Quarter
Feb 10
New

Hourly Weather History & Observations

Time (MST) Temp. Windchill Dew Point Humidity Pressure Visibility Wind Dir Wind Speed Gust Speed Precip Events Conditions
12:34 AM -2.2 °F - -2.2 °F 100% 30.58 in 8.0 mi Calm Calm - N/A   Clear
12:39 AM -2.2 °F - -2.2 °F 100% 30.59 in 1.5 mi Calm Calm - N/A   Clear
12:44 AM -2.2 °F - -2.2 °F 100% 30.59 in 0.5 mi Calm Calm - N/A Fog Light Freezing Fog
12:58 AM -1.7 °F - -1.7 °F 100% 30.79 in 0.2 mi Calm Calm - N/A Fog Light Freezing Fog
1:09 AM -2.2 °F - -2.2 °F 100% 30.60 in 0.5 mi Calm Calm - N/A Fog Light Freezing Fog
1:14 AM -2.2 °F - -2.2 °F 100% 30.59 in 0.8 mi Calm Calm - N/A   Clear
1:20 AM -2.2 °F - -2.2 °F 100% 30.60 in 0.5 mi Calm Calm - N/A Fog Light Freezing Fog
1:25 AM -0.4 °F - -0.4 °F 100% 30.60 in 0.2 mi Calm Calm - N/A Fog Light Freezing Fog
2:58 AM -1.5 °F - -1.5 °F 100% 30.78 in 0.2 mi Calm Calm - N/A Fog Light Freezing Fog
3:20 AM -2.2 °F - -2.2 °F 100% 30.59 in 0.5 mi NE 2.3 mph - N/A Fog Light Freezing Fog
3:26 AM -2.2 °F - -2.2 °F 100% 30.59 in 2.0 mi NE 2.3 mph - N/A   Overcast
3:42 AM -0.4 °F - -0.4 °F 100% 30.59 in 1.8 mi NE 1.2 mph - N/A   Overcast
3:47 AM -0.4 °F - -0.4 °F 100% 30.59 in 1.0 mi Calm Calm - N/A   Mist
3:53 AM -2.2 °F - -2.2 °F 100% 30.58 in 0.5 mi Calm Calm - N/A Fog Light Freezing Fog
3:58 AM -1.5 °F - -1.5 °F 100% 30.77 in 0.5 mi Calm Calm - N/A Fog Light Freezing Fog
4:03 AM -2.2 °F - -2.2 °F 100% 30.58 in 1.0 mi Calm Calm - N/A   Mist
4:08 AM -2.2 °F - -2.2 °F 100% 30.57 in 0.5 mi Calm Calm - N/A Fog Light Freezing Fog
4:51 AM -2.2 °F - -2.2 °F 100% 30.56 in 0.5 mi Calm Calm - N/A Fog Light Freezing Fog
5:03 AM -2.2 °F - -2.2 °F 100% 30.56 in 0.2 mi Calm Calm - N/A Fog Light Freezing Fog
6:48 AM -2.2 °F - -2.2 °F 100% 30.56 in 0.5 mi Calm Calm - N/A Fog Light Freezing Fog
6:58 AM -2.2 °F - -2.2 °F 100% 30.77 in 0.2 mi Calm Calm - N/A Fog Light Freezing Fog
7:50 AM 1.4 °F - 1.4 °F 100% 30.57 in 0.1 mi Calm Calm - N/A Fog Light Freezing Fog
7:57 AM 1.4 °F - 1.4 °F 100% 30.77 in 0.1 mi Calm Calm - N/A Fog Light Freezing Fog
8:58 AM 1.4 °F - 1.4 °F 100% 30.79 in 0.1 mi Calm Calm - N/A Fog Light Freezing Fog
9:19 AM 1.4 °F - 1.4 °F 100% 30.58 in 0.1 mi Calm Calm - N/A Fog Light Freezing Fog
9:25 AM 1.4 °F - 1.4 °F 100% 30.58 in 0.2 mi Calm Calm - N/A Fog Light Freezing Fog
9:31 AM 1.4 °F - 1.4 °F 100% 30.58 in 0.2 mi Calm Calm - N/A Fog Light Freezing Fog
9:54 AM 1.4 °F - 1.4 °F 100% 30.58 in 0.4 mi Calm Calm - N/A Fog Light Freezing Fog
9:58 AM 1.9 °F - 1.9 °F 100% 30.79 in 0.4 mi Calm Calm - N/A Fog Light Freezing Fog
10:08 AM 3.2 °F - 3.2 °F 100% 30.58 in 0.5 mi Calm Calm - N/A Fog Light Freezing Fog
10:20 AM 3.2 °F - 3.2 °F 100% 30.58 in 0.8 mi Calm Calm - N/A   Mist
10:32 AM 3.2 °F - 3.2 °F 100% 30.58 in 1.2 mi Calm Calm - N/A   Mist
10:50 AM 5.0 °F - 5.0 °F 100% 30.58 in 1.5 mi Calm Calm - N/A   Scattered Clouds
10:55 AM 6.8 °F - 6.8 °F 100% 30.58 in 2.0 mi Calm Calm - N/A   Scattered Clouds
10:58 AM 7.0 °F - 7.0 °F 100% 30.78 in 2.0 mi Calm Calm - N/A   Scattered Clouds
11:03 AM 6.8 °F - 6.8 °F 100% 30.58 in 2.5 mi Calm Calm - N/A   Partly Cloudy
11:13 AM 6.8 °F - 6.8 °F 100% 30.58 in 3.0 mi SE 2.3 mph - N/A   Clear
11:42 AM 8.6 °F - 8.6 °F 100% 30.58 in 3.0 mi WNW 2.3 mph - N/A   Partly Cloudy
11:58 AM 9.5 °F 3.0 °F 9.5 °F 100% 30.78 in 3.0 mi West 3.5 mph - N/A   Partly Cloudy
12:58 PM 11.7 °F 5.5 °F 11.7 °F 100% 30.75 in 7.0 mi WSW 3.5 mph - N/A   Clear
1:58 PM 10.9 °F - 10.9 °F 100% 30.72 in 6.0 mi WNW 2.3 mph - N/A   Partly Cloudy
2:58 PM 12.2 °F - 12.2 °F 100% 30.71 in 6.0 mi West 2.3 mph - N/A   Partly Cloudy
3:58 PM 12.6 °F - 12.6 °F 100% 30.71 in 10.0 mi NW 2.3 mph - N/A   Clear
4:58 PM 12.2 °F - 12.2 °F 100% 30.71 in 10.0 mi NW 2.3 mph - N/A   Clear
5:58 PM 9.7 °F 3.2 °F 9.7 °F 100% 30.71 in 9.0 mi North 3.5 mph - N/A   Clear
6:58 PM 3.9 °F - 3.9 °F 100% 30.74 in 10.0 mi Calm Calm - N/A   Clear
7:58 PM 3.2 °F - 3.2 °F 100% 30.52 in 7.0 mi Calm Calm - N/A   Clear
8:34 PM 1.4 °F - 1.4 °F 100% 30.50 in 10.0 mi Calm Calm - N/A   Clear
8:58 PM 1.9 °F -9.2 °F 1.9 °F 100% 30.50 in 9.0 mi NNE 5.8 mph - N/A   Clear
9:58 PM 3.2 °F - 3.2 °F 100% 30.73 in 8.0 mi WNW 1.2 mph - N/A   Clear
10:58 PM 1.6 °F - 1.6 °F 100% 30.72 in 10.0 mi Calm Calm - N/A   Clear
11:53 PM -0.4 °F - -0.4 °F 100% 30.53 in 10.0 mi Calm Calm - N/A   Clear
11:58 PM -0.6 °F - -0.6 °F 100% 30.73 in 10.0 mi Calm Calm - N/A   Clear